Weather History for KMHK - October, 2013

Change the Weather History Date:

Sunday, October 20, 2013

  Actual Average Record
Temperature  
Mean Temperature 53 °F 54 °F  
Max Temperature 69 °F 67 °F 90 °F (2003)
Min Temperature 36 °F 41 °F 23 °F (2011)
Degree Days  
Heating Degree Days 12 12  
Month to date heating degree days 157 176  
Since 1 July heating degree days 177 246  
Cooling Degree Days 0 0  
Month to date cooling degree days 33 21  
Year to date cooling degree days 1513 1358  
Growing Degree Days 4 (Base 50)    
Moisture  
Dew Point 40 °F    
Average Humidity 68    
Maximum Humidity 100    
Minimum Humidity 36    
Precipitation  
Precipitation 0.00 in 0.07 in 0.49 in (2005)
Month to date precipitation 2.63 1.54  
Year to date precipitation 26.95 29.25  
Sea Level Pressure  
Sea Level Pressure 29.86 in    
Wind  
Wind Speed 4 mph (West)    
Max Wind Speed 16 mph    
Max Gust Speed 21 mph    
Visibility 10 miles    
Events      
T = Trace of Precipitation, MM = Missing Value Source: NWS Daily Summary

Daily Weather History Graph

Daily Weather History Graph

Search for Another Location

Airport or City:

Trip Planner

Search our weather history database for the weather conditions in past years. The results will help you decide how hot, cold, wet, or windy it might be!

Date:

Astronomy

Oct. 20, 2013 Rise Set
Actual Time 7:41 AM CDT 6:40 PM CDT
Civil Twilight 7:14 AM CDT 7:07 PM CDT
Nautical Twilight 6:43 AM CDT 7:38 PM CDT
Astronomical Twilight 6:12 AM CDT 8:09 PM CDT
Moon 7:50 PM CDT (10/20) 9:19 AM CDT (10/20)
Length of Visible Light 11h 53m
Length of Day
10h 58m
Full, 97% of the Moon is Illuminated
Oct 20
Full
Oct 26
Last Quarter
Nov 3
New
Nov 9
First Quarter
Nov 17
Full

Hourly Weather History & Observations

Time (CDT) Temp. Windchill Dew Point Humidity Pressure Visibility Wind Dir Wind Speed Gust Speed Precip Events Conditions
12:52 AM 41.0 °F - 39.0 °F 93% 29.87 in 10.0 mi Calm Calm - N/A   Clear
1:52 AM 46.0 °F 43.1 °F 41.0 °F 83% 29.86 in 10.0 mi WSW 5.8 mph - N/A   Clear
2:52 AM 39.9 °F - 39.9 °F 100% 29.85 in 10.0 mi Calm Calm - N/A   Clear
3:52 AM 39.0 °F - 37.9 °F 96% 29.83 in 10.0 mi Calm Calm - N/A   Clear
4:52 AM 41.0 °F 38.0 °F 39.0 °F 93% 29.83 in 10.0 mi WSW 4.6 mph - N/A   Clear
5:52 AM 39.9 °F - 37.0 °F 89% 29.83 in 10.0 mi Calm Calm - N/A   Clear
6:52 AM 39.0 °F - 37.0 °F 93% 29.83 in 10.0 mi Calm Calm - N/A   Clear
7:52 AM 39.9 °F 35.8 °F 37.9 °F 93% 29.84 in 10.0 mi SW 5.8 mph - N/A   Clear
8:52 AM 46.0 °F 42.5 °F 39.9 °F 79% 29.85 in 10.0 mi SW 6.9 mph - N/A   Clear
9:52 AM 52.0 °F - 39.0 °F 61% 29.84 in 10.0 mi SW 13.8 mph 20.7 mph N/A   Clear
10:52 AM 57.0 °F - 39.9 °F 53% 29.84 in 10.0 mi SSW 5.8 mph - N/A   Clear
11:52 AM 62.1 °F - 39.0 °F 43% 29.84 in 10.0 mi SW 5.8 mph - N/A   Clear
12:52 PM 66.0 °F - 39.9 °F 38% 29.84 in 10.0 mi WNW 8.1 mph - N/A   Clear
1:52 PM 66.9 °F - 41.0 °F 39% 29.81 in 10.0 mi Calm Calm - N/A   Clear
2:52 PM 68.0 °F - 41.0 °F 37% 29.81 in 10.0 mi Variable 4.6 mph - N/A   Clear
3:52 PM 69.1 °F - 41.0 °F 36% 29.81 in 10.0 mi North 6.9 mph - N/A   Clear
4:52 PM 68.0 °F - 42.1 °F 39% 29.83 in 10.0 mi North 5.8 mph - N/A   Clear
5:52 PM 64.9 °F - 43.0 °F 45% 29.85 in 10.0 mi Calm Calm - N/A   Clear
6:52 PM 57.0 °F - 46.0 °F 67% 29.87 in 10.0 mi Calm Calm - N/A   Clear
7:52 PM 55.0 °F - 44.1 °F 67% 29.91 in 10.0 mi Calm Calm - N/A   Clear
8:52 PM 57.9 °F - 43.0 °F 58% 29.92 in 10.0 mi Calm Calm - N/A   Scattered Clouds
9:52 PM 57.0 °F - 42.1 °F 57% 29.95 in 10.0 mi Variable 5.8 mph - N/A   Scattered Clouds
10:52 PM 57.0 °F - 39.0 °F 51% 29.97 in 10.0 mi NNE 10.4 mph - N/A   Clear
11:52 PM 54.0 °F - 39.0 °F 57% 30.00 in 10.0 mi North 3.5 mph 19.6 mph N/A   Clear